TimeEST,TemperatureF,Dew PointF,Humidity,Sea Level PressureIn,VisibilityMPH,Wind Direction,Wind SpeedMPH,Gust SpeedMPH,PrecipitationIn,Events,Conditions,WindDirDegrees,DateUTC
12:56 AM,28.0,12.0,51,30.04,10.0,North,13.8,-,N/A,,Overcast,10,2013-01-18 05:56:00
1:56 AM,28.4,10.4,47,30.07,10.0,NNE,9.2,17.3,N/A,,Overcast,20,2013-01-18 06:56:00
2:56 AM,27.0,10.9,51,30.09,9.0,North,11.5,-,0.00,Snow,Light Snow,360,2013-01-18 07:56:00
3:56 AM,26.1,10.9,53,30.09,10.0,North,11.5,-,N/A,,Overcast,350,2013-01-18 08:56:00
4:56 AM,25.0,10.9,55,30.14,10.0,North,10.4,-,N/A,,Mostly Cloudy,350,2013-01-18 09:56:00
5:56 AM,24.1,9.0,53,30.19,10.0,NNW,13.8,-,N/A,,Overcast,340,2013-01-18 10:56:00
6:56 AM,21.0,9.0,60,30.26,10.0,North,17.3,-,N/A,,Scattered Clouds,350,2013-01-18 11:56:00
7:56 AM,21.9,7.0,53,30.32,10.0,NNW,10.4,-,N/A,,Mostly Cloudy,340,2013-01-18 12:56:00
8:56 AM,23.0,8.1,53,30.36,10.0,NNW,16.1,-,N/A,,Partly Cloudy,340,2013-01-18 13:56:00
9:56 AM,24.1,7.0,48,30.41,10.0,NNW,13.8,-,N/A,,Clear,340,2013-01-18 14:56:00
10:56 AM,25.0,7.0,46,30.42,10.0,NNW,13.8,20.7,N/A,,Mostly Cloudy,330,2013-01-18 15:56:00
11:56 AM,25.0,6.1,45,30.41,10.0,NW,16.1,28.8,N/A,,Scattered Clouds,310,2013-01-18 16:56:00
12:56 PM,25.0,5.0,43,30.42,10.0,Variable,6.9,-,N/A,,Partly Cloudy,0,2013-01-18 17:56:00
1:45 PM,26.6,3.2,37,30.40,10.0,NW,15.0,-,N/A,,Partly Cloudy,310,2013-01-18 18:45:00
1:56 PM,26.1,3.9,39,30.43,10.0,NW,12.7,20.7,N/A,,Partly Cloudy,310,2013-01-18 18:56:00
2:56 PM,27.0,5.0,39,30.43,10.0,NW,11.5,18.4,N/A,,Clear,320,2013-01-18 19:56:00
3:56 PM,26.1,3.9,39,30.44,10.0,NW,10.4,-,N/A,,Partly Cloudy,320,2013-01-18 20:56:00
4:56 PM,25.0,3.9,41,30.45,10.0,West,5.8,-,N/A,,Clear,280,2013-01-18 21:56:00
5:56 PM,24.1,3.9,42,30.48,10.0,Calm,Calm,-,N/A,,Clear,0,2013-01-18 22:56:00
6:56 PM,21.0,9.0,60,30.48,10.0,Calm,Calm,-,N/A,,Clear,0,2013-01-18 23:56:00
7:56 PM,21.0,10.0,63,30.47,10.0,Calm,Calm,-,N/A,,Clear,0,2013-01-19 00:56:00
8:56 PM,23.0,6.1,48,30.46,10.0,Calm,Calm,-,N/A,,Clear,0,2013-01-19 01:56:00
9:56 PM,23.0,8.1,53,30.45,10.0,Calm,Calm,-,N/A,,Clear,0,2013-01-19 02:56:00
10:56 PM,27.0,8.1,45,30.43,10.0,Variable,5.8,-,N/A,,Clear,0,2013-01-19 03:56:00
11:56 PM,27.0,9.0,47,30.40,10.0,South,4.6,-,N/A,,Scattered Clouds,190,2013-01-19 04:56:00